Other Public Products
Issued by NWS Grand Forks, ND

Home | Current Version | Previous Version | Graphics & Text | Print | Product List | Glossary On
Versions: 1 2 3 4 5 6 7 8 9 10 11 12 13 14 15 16 17 18 19 20 21 22 23 24 25 26 27 28 29 30 31 32 33 34 35 36 37 38 39 40 41 42 43 44 45 46 47 48 49 50
000
FPUS83 KFGF 301210
OPUFGF
PRAIRIE TO PINES WEATHER ROUNDUP
NATIONAL WEATHER SERVICE EASTERN NORTH DAKOTA/GRAND FORKS ND
700 AM CDT SAT AUG 30 2014

 **SATELLITE DATA USED TO AUGMENT SKY COVER AT AUTOMATED STATIONS**
 *****  WEATHER ACROSS EASTERN NORTH DAKOTA  *****

CITY           SKY/WX    TMP DP  RH WIND       PRES   REMARKS
GRAND FORKS    CLEAR     48  46  93 NW6       29.94F
6HR MIN TEMP:  48; 6HR MAX TEMP:  56;

GRAND FORKS AF CLEAR     48  47  99 N6        29.96S
GRAND CITY NWS   N/A     46 N/A N/A N2          N/A
BUXTON         NOT AVBL
DEVILS LAKE      N/A     43  37  81 CALM      29.96S VSB 1/4
6HR MIN TEMP:  43; 6HR MAX TEMP:  52;

FARGO          CLOUDY    56  52  86 N9        29.92R
6HR MIN TEMP:  56; 6HR MAX TEMP:  62;

WAHPETON ARPT  CLOUDY    57  52  82 N9        29.91R
$$

 *****  WEATHER ACROSS CENTRAL AND WESTERN NORTH DAKOTA  *****

CITY           SKY/WX    TMP DP  RH WIND       PRES   REMARKS
JAMESTOWN      CLEAR     49  48  97 N3        29.96S
6HR MIN TEMP:  48; 6HR MAX TEMP:  60;

BISMARCK       FOG       47  47 100 CALM      29.98S VSB 1/4
6HR MIN TEMP:  45; 6HR MAX TEMP:  54;

MINOT          CLEAR     47  45  93 SE6       29.94F
6HR MIN TEMP:  45; 6HR MAX TEMP:  53;

MINOT AFB      CLEAR     45  45 100 SE5       29.94S FOG
6HR MIN TEMP:  43; 6HR MAX TEMP:  50;

GARRISON         N/A     50  49  96 E6        29.95S
6HR MIN TEMP:  47; 6HR MAX TEMP:  53;

WILLISTON      CLEAR     57  51  80 SE8       29.88F
6HR MIN TEMP:  52; 6HR MAX TEMP:  58;

DICKINSON      MOCLDY    52  50  93 SE10      29.93S
6HR MIN TEMP:  50; 6HR MAX TEMP:  53;

HETTINGER      FOG       54  53  97 SE10      29.95F VSB 1/2
6HR MIN TEMP:  50; 6HR MAX TEMP:  54;

$$

 *****  OTHER OBSERVATIONS NORTHEAST NORTH DAKOTA  *****

CITY           SKY/WX    TMP DP  RH WIND       PRES   REMARKS
WALHALLA       FAIR      41  41 100 CALM      29.98S
LANGDON        FOG       37  37 100 CALM      29.97F VSB<1/4
CAVALIER       FAIR      45  45 100 NW5       29.97S
GRAFTON        FAIR      45  45 100 NW7       29.96S
CANDO          FOG       41  41 100 NE3       29.98S VSB 3/4
FORT TOTTEN      N/A     48  47  98 E2        29.95S
ROLLA          FAIR      39  39 100 CALM      29.98S
RUGBY          FAIR      46  46 100 SE5       29.96S
 ***** THE ABOVE OBSERVATIONS ARE NON NWS ARE NOT QUALITY
        CONTROLLED AND MAY MIS-REPORT RAIN FOR SNOW...
$$

 *****  OTHER OBSERVATIONS SOUTHEAST NORTH DAKOTA *****

CITY           SKY/WX    TMP DP  RH WIND       PRES   REMARKS
COOPERSTOWN    NOT AVBL
VALLEY CITY    FAIR      50  50 100 N7        29.95S
OAKES            N/A     55  54  94 N8        29.94S
GWINNER        CLOUDY    57  54  88 N9        29.95R
SHEYENNE NWR     N/A     57  52  83 N6        29.95S
BUFFALO        NOT AVBL
WYNDMERE       NOT AVBL
 ***** THE ABOVE OBSERVATIONS ARE NON NWS ARE NOT QUALITY
       CONTROLLED AND MAY MIS-REPORT RAIN FOR SNOW...
$$

  *****  WEATHER ACROSS NORTHERN MINNESOTA  *****

CITY           SKY/WX    TMP DP  RH WIND       PRES   REMARKS
FLAG ISLAND    CLOUDY    57  54  88 NE7       29.94R
WARROAD        CLEAR     48  45  87 N6        29.95S
ROSEAU         CLEAR     46  43  87 N5        29.95S
HALLOCK        CLEAR     45  43  93 NW6       29.96S
THF RVR FALLS  CLEAR     50  46  87 N7        29.94S
6HR MIN TEMP:  50; 6HR MAX TEMP:  57;

HALSTAD          N/A     51  50  95 N9          N/A
FOSSTON        PTCLDY    54  52  94 N10       29.92S
BAUDETTE       CLEAR     54  52  93 N6        29.93R
6HR MIN TEMP:  54; 6HR MAX TEMP:  58;

WASKISH        CLOUDY    55  54  94 N6        29.92S
CROOKSTON      CLEAR     48  46  93 N5        29.95S
$$
  *****  WEATHER ACROSS CENTRAL AND WEST MINNESOTA  *****

CITY           SKY/WX    TMP DP  RH WIND       PRES   REMARKS
BEMIDJI        CLOUDY    57  54  89 N8G17     29.90R
PARK RAPIDS    CLOUDY    59  56  89 N9        29.89R
6HR MIN TEMP:  59; 6HR MAX TEMP:  66;

WADENA         CLOUDY    59  57  94 N7        29.88R
DETROIT LAKES  CLOUDY    59  57  94 N7        29.91R
MOORHEAD       CLOUDY    55  55 100 N10       29.93R
FERGUS FALLS   CLOUDY    61  57  88 N7        29.89R
ELBOW LAKE     CLOUDY    59  59 100 N10       29.88S FOG
6HR MIN TEMP:  59; 6HR MAX TEMP:  63;

MORRIS MN      CLOUDY    61  61 100 NW12      29.88R
STAPLES        CLOUDY    61  59  94 N7        29.87R FOG
WHEATON        CLOUDY    57  54  88 NW10      29.92R
$$
  *****  WEATHER ELSEWHERE ACROSS MINNESOTA  *****

CITY           SKY/WX    TMP DP  RH WIND       PRES   REMARKS
DULUTH         MOCLDY    61  58  90 N7        29.84R
6HR MIN TEMP:  60; 6HR MAX TEMP:  64;

INTRNTL FALLS  CLOUDY    58  53  84 NE10      29.91R
6HR MIN TEMP:  57; 6HR MAX TEMP:  59;

ELY            CLOUDY    59  57  94 N3        29.86R
CLOQUET        CLOUDY    61  57  88 NW5       29.84R
BRAINERD       CLOUDY    63  63 100 N7        29.85R FOG
6HR MIN TEMP:  63; 6HR MAX TEMP:  64;

HIBBING        CLOUDY    62  59  90 N8        29.87R
6HR MIN TEMP:  60; 6HR MAX TEMP:  63;

ALEXANDRIA     CLOUDY    65  63  93 N6        29.88R
6HR MIN TEMP:  65; 6HR MAX TEMP:  66;

SAINT CLOUD    CLOUDY    67  65  93 CALM      29.84R
6HR MIN TEMP:  65; 6HR MAX TEMP:  70;

MINNEAPOLIS    CLOUDY    67  65  93 N10       29.81R
6HR MIN TEMP:  67; 6HR MAX TEMP:  68; 6HR PCP:  0.36;

$$

  *****  WEATHER ACROSS SOUTH DAKOTA  *****

CITY           SKY/WX    TMP DP  RH WIND       PRES   REMARKS
SIOUX FALLS    CLOUDY    63  61  93 NW8       29.91R FOG
6HR MIN TEMP:  63; 6HR MAX TEMP:  67;

BROOKINGS      NOT AVBL
WATERTOWN      CLOUDY    59  58  96 N9        29.92R
6HR MIN TEMP:  59; 6HR MAX TEMP:  63;

HURON          CLOUDY    59  57  93 NW6       29.94R
6HR MIN TEMP:  59; 6HR MAX TEMP:  62;

SISSETON         N/A     59  57  93 N9        29.91R
ABERDEEN       CLOUDY    58  56  93 N8        29.95R
6HR MIN TEMP:  58; 6HR MAX TEMP:  59;

MITCHELL       MOCLDY    59  58  96 NW5       29.95R
PIERRE         CLEAR     52  51  97 CALM      29.96R
6HR MIN TEMP:  51; 6HR MAX TEMP:  60;

MOBRIDGE         N/A     49  49 100 CALM      29.95R
RAPID CITY     CLEAR     52  51  97 SE6       29.95F FOG
6HR MIN TEMP:  50; 6HR MAX TEMP:  56;

$$

  *****  SOME WEATHER IN NEARBY STATES *****

CITY           SKY/WX    TMP DP  RH WIND       PRES   REMARKS
GLASGOW MT     PTCLDY    55  53  93 E13       29.77S
6HR MIN TEMP:  55; 6HR MAX TEMP:  59;

GREAT FALLS MT CLOUDY    61  41  47 SW8       29.82R
6HR MIN TEMP:  56; 6HR MAX TEMP:  69;

CHEYENNE WY    CLEAR     50  46  86 SW3       30.11F
6HR MIN TEMP:  49; 6HR MAX TEMP:  54;

SCOTTSBLUFF NE CLEAR     55  53  93 E10       30.01F
6HR MIN TEMP:  53; 6HR MAX TEMP:  59;

OMAHA NE       CLEAR     64  61  90 NW3       29.92R
6HR MIN TEMP:  63; 6HR MAX TEMP:  68;

DES MOINES IA  MOCLDY    67  64  90 W5        29.86R
6HR MIN TEMP:  66; 6HR MAX TEMP:  70; 6HR PCP: TRACE;

DAVENPORT IA   CLOUDY    69  67  93 SW8       29.82S
6HR MIN TEMP:  68; 6HR MAX TEMP:  71; 6HR PCP:  0.05;

CHICAGO IL     HVY RAIN  73  67  81 SW22G30   29.88R VSB 1
6HR MIN TEMP:  73; 6HR MAX TEMP:  75; 6HR PCP:  0.01;

EAU CLAIRE WI  CLOUDY    67  66  97 CALM      29.76S
6HR MIN TEMP:  66; 6HR MAX TEMP:  67; 6HR PCP:  0.17;

LA CROSSE WI   LGT RAIN  69  67  93 S5        29.75R FOG
6HR MIN TEMP:  68; 6HR MAX TEMP:  70; 6HR PCP:  0.56;

$$

  *****  SOME NATIONAL WEATHER *****

CITY           SKY/WX    TMP DP  RH WIND       PRES   REMARKS



USA.gov is the U.S. government's official web portal to all federal, state and local government web resources and services.